TimeMST,TemperatureF,Dew PointF,Humidity,Sea Level PressureIn,VisibilityMPH,Wind Direction,Wind SpeedMPH,Gust SpeedMPH,PrecipitationIn,Events,Conditions,WindDirDegrees,DateUTC
12:53 AM,18.0,15.1,88,30.36,10.0,ENE,5.8,-,N/A,,Overcast,70,2012-12-29 07:53:00
1:53 AM,14.0,12.9,95,30.38,10.0,Calm,Calm,-,N/A,,Partly Cloudy,0,2012-12-29 08:53:00
2:53 AM,15.1,12.0,88,30.38,10.0,ENE,5.8,-,N/A,,Overcast,60,2012-12-29 09:53:00
3:25 AM,12.2,10.4,92,30.20,10.0,ENE,3.5,-,0.00,,Overcast,60,2012-12-29 10:25:00
3:33 AM,10.4,8.6,92,30.20,10.0,ENE,3.5,-,0.00,,Overcast,60,2012-12-29 10:33:00
3:40 AM,10.4,8.6,92,30.21,10.0,Calm,Calm,-,0.00,,Overcast,0,2012-12-29 10:40:00
3:53 AM,10.9,7.0,84,30.40,9.0,Calm,Calm,-,0.00,,Overcast,0,2012-12-29 10:53:00
4:16 AM,8.6,6.8,92,30.20,10.0,Calm,Calm,-,N/A,,Mostly Cloudy,0,2012-12-29 11:16:00
4:53 AM,8.1,5.0,87,30.38,10.0,ESE,3.5,-,N/A,,Overcast,120,2012-12-29 11:53:00
5:10 AM,8.6,6.8,92,30.18,10.0,Calm,Calm,-,N/A,,Overcast,0,2012-12-29 12:10:00
5:34 AM,8.6,3.2,79,30.18,10.0,Calm,Calm,-,N/A,,Partly Cloudy,0,2012-12-29 12:34:00
5:53 AM,7.0,3.9,87,30.39,10.0,Calm,Calm,-,N/A,,Clear,0,2012-12-29 12:53:00
6:53 AM,7.0,3.9,87,30.40,10.0,Calm,Calm,-,N/A,,Clear,0,2012-12-29 13:53:00
7:53 AM,5.0,1.9,87,30.38,10.0,Calm,Calm,-,N/A,,Clear,0,2012-12-29 14:53:00
8:53 AM,5.0,3.0,92,30.39,10.0,NE,3.5,-,N/A,,Clear,50,2012-12-29 15:53:00
9:53 AM,8.1,3.9,83,30.38,10.0,NNE,4.6,-,N/A,,Clear,30,2012-12-29 16:53:00
10:53 AM,10.0,3.0,73,30.35,10.0,ENE,4.6,-,N/A,,Clear,60,2012-12-29 17:53:00
11:53 AM,14.0,6.1,71,30.30,10.0,Calm,Calm,-,N/A,,Partly Cloudy,0,2012-12-29 18:53:00
12:53 PM,18.0,8.1,65,30.24,10.0,Calm,Calm,-,N/A,,Clear,0,2012-12-29 19:53:00
1:53 PM,19.9,8.1,60,30.22,10.0,Calm,Calm,-,N/A,,Mostly Cloudy,0,2012-12-29 20:53:00
2:53 PM,19.0,9.0,65,30.20,10.0,Calm,Calm,-,N/A,,Mostly Cloudy,0,2012-12-29 21:53:00
3:53 PM,19.9,10.0,65,30.19,10.0,Calm,Calm,-,N/A,,Overcast,0,2012-12-29 22:53:00
4:53 PM,18.0,9.0,68,30.19,10.0,Calm,Calm,-,N/A,,Scattered Clouds,0,2012-12-29 23:53:00
5:53 PM,12.0,8.1,84,30.20,10.0,Calm,Calm,-,N/A,,Clear,0,2012-12-30 00:53:00